Time,TemperatureF,DewpointF,PressureIn,WindDirection,WindDirectionDegrees,WindSpeedMPH,WindSpeedGustMPH,Humidity,HourlyPrecipIn,Conditions,Clouds,dailyrainin,SolarRadiationWatts/m^2,SoftwareType,DateUTC
2013-05-02 00:01:00,57.5,53.7,30.30,East,90,0.0,-999.0,87,0.00,,,0.00,0,Wunderground v.1.15,2013-05-02 04:01:00,
2013-05-02 00:02:00,57.5,53.7,30.30,East,90,0.0,-999.0,87,0.00,,,0.00,0,Wunderground v.1.15,2013-05-02 04:02:00,
2013-05-02 00:04:00,57.5,53.7,30.30,East,90,0.0,-999.0,87,0.00,,,0.00,0,Wunderground v.1.15,2013-05-02 04:04:00,
2013-05-02 00:07:00,57.5,53.7,30.30,NNE,30,0.0,-999.0,87,0.00,,,0.00,0,Wunderground v.1.15,2013-05-02 04:07:00,
2013-05-02 00:10:00,57.5,53.3,30.30,NNE,30,0.0,-999.0,86,0.00,,,0.00,0,Wunderground v.1.15,2013-05-02 04:10:00,
2013-05-02 00:15:00,57.5,53.7,30.30,ENE,69,0.0,-999.0,87,0.00,,,0.00,0,Wunderground v.1.15,2013-05-02 04:15:00,
2013-05-02 00:20:00,57.5,53.7,30.30,East,92,0.0,-999.0,87,0.00,,,0.00,0,Wunderground v.1.15,2013-05-02 04:20:00,
2013-05-02 00:26:00,57.4,53.6,30.30,East,94,0.0,-999.0,87,0.00,,,0.00,0,Wunderground v.1.15,2013-05-02 04:26:00,
2013-05-02 00:31:00,57.4,53.6,30.30,East,94,0.0,-999.0,87,0.00,,,0.00,0,Wunderground v.1.15,2013-05-02 04:31:00,
2013-05-02 00:36:00,57.4,53.6,30.30,East,94,0.0,-999.0,87,0.00,,,0.00,0,Wunderground v.1.15,2013-05-02 04:36:00,
2013-05-02 00:41:00,57.4,53.6,30.30,East,94,0.0,-999.0,87,0.00,,,0.00,0,Wunderground v.1.15,2013-05-02 04:41:00,
2013-05-02 00:46:00,57.3,53.5,30.30,East,90,0.0,-999.0,87,0.00,,,0.00,0,Wunderground v.1.15,2013-05-02 04:46:00,
2013-05-02 00:52:00,57.3,53.5,30.30,ESE,104,0.0,-999.0,87,0.00,,,0.00,0,Wunderground v.1.15,2013-05-02 04:52:00,
2013-05-02 00:57:00,57.3,53.1,30.30,ESE,104,0.0,-999.0,86,0.00,,,0.00,0,Wunderground v.1.15,2013-05-02 04:57:00,
2013-05-02 01:02:00,57.3,53.1,30.30,ESE,111,0.0,-999.0,86,0.00,,,0.00,0,Wunderground v.1.15,2013-05-02 05:02:00,
2013-05-02 01:08:00,57.3,53.1,30.31,ESE,111,0.0,-999.0,86,0.00,,,0.00,0,Wunderground v.1.15,2013-05-02 05:08:00,
2013-05-02 01:13:00,57.3,53.1,30.30,ESE,107,0.0,-999.0,86,0.00,,,0.00,0,Wunderground v.1.15,2013-05-02 05:13:00,
2013-05-02 01:18:00,57.2,53.0,30.30,ESE,107,0.0,-999.0,86,0.00,,,0.00,0,Wunderground v.1.15,2013-05-02 05:18:00,
2013-05-02 01:24:00,57.2,53.0,30.30,ESE,107,0.0,-999.0,86,0.00,,,0.00,0,Wunderground v.1.15,2013-05-02 05:24:00,
2013-05-02 01:29:00,57.2,53.0,30.30,East,97,0.0,-999.0,86,0.00,,,0.00,0,Wunderground v.1.15,2013-05-02 05:29:00,
2013-05-02 01:34:00,57.1,53.0,30.29,East,97,0.0,-999.0,86,0.00,,,0.00,0,Wunderground v.1.15,2013-05-02 05:34:00,
2013-05-02 01:39:00,57.0,52.5,30.29,East,97,0.0,-999.0,85,0.00,,,0.00,0,Wunderground v.1.15,2013-05-02 05:39:00,
2013-05-02 01:45:00,56.9,52.4,30.29,ESE,121,0.0,-999.0,85,0.00,,,0.00,0,Wunderground v.1.15,2013-05-02 05:45:00,
2013-05-02 01:50:00,56.9,52.4,30.29,ESE,121,0.0,-999.0,85,0.00,,,0.00,0,Wunderground v.1.15,2013-05-02 05:50:00,
2013-05-02 01:55:00,56.8,52.0,30.29,ESE,121,0.0,-999.0,84,0.00,,,0.00,0,Wunderground v.1.15,2013-05-02 05:55:00,
2013-05-02 02:01:00,56.7,51.9,30.29,ESE,121,0.0,-999.0,84,0.00,,,0.00,0,Wunderground v.1.15,2013-05-02 06:01:00,
2013-05-02 02:06:00,56.7,51.9,30.29,ESE,118,0.0,-999.0,84,0.00,,,0.00,0,Wunderground v.1.15,2013-05-02 06:06:00,
2013-05-02 02:11:00,56.6,51.8,30.29,ESE,118,0.0,-999.0,84,0.00,,,0.00,0,Wunderground v.1.15,2013-05-02 06:11:00,
2013-05-02 02:17:00,56.6,51.8,30.29,ESE,118,0.0,-999.0,84,0.00,,,0.00,0,Wunderground v.1.15,2013-05-02 06:17:00,
2013-05-02 02:22:00,56.5,51.7,30.29,ESE,118,0.0,-999.0,84,0.00,,,0.00,0,Wunderground v.1.15,2013-05-02 06:22:00,
2013-05-02 02:27:00,56.5,51.7,30.29,East,87,0.0,-999.0,84,0.00,,,0.00,0,Wunderground v.1.15,2013-05-02 06:27:00,
2013-05-02 02:32:00,56.4,51.6,30.29,East,87,0.0,-999.0,84,0.00,,,0.00,0,Wunderground v.1.15,2013-05-02 06:32:00,
2013-05-02 02:38:00,56.4,51.6,30.28,East,87,0.0,-999.0,84,0.00,,,0.00,0,Wunderground v.1.15,2013-05-02 06:38:00,
2013-05-02 02:43:00,56.3,51.5,30.29,East,87,0.0,-999.0,84,0.00,,,0.00,0,Wunderground v.1.15,2013-05-02 06:43:00,
2013-05-02 02:48:00,56.3,51.8,30.28,East,87,0.0,-999.0,85,0.00,,,0.00,0,Wunderground v.1.15,2013-05-02 06:48:00,
2013-05-02 02:54:00,56.2,51.4,30.28,East,87,0.0,-999.0,84,0.00,,,0.00,0,Wunderground v.1.15,2013-05-02 06:54:00,
2013-05-02 02:59:00,56.1,51.3,30.28,East,87,0.0,-999.0,84,0.00,,,0.00,0,Wunderground v.1.15,2013-05-02 06:59:00,
2013-05-02 03:04:00,56.0,51.2,30.28,East,87,0.0,-999.0,84,0.00,,,0.00,0,Wunderground v.1.15,2013-05-02 07:04:00,
2013-05-02 03:09:00,55.9,51.1,30.28,East,88,0.0,-999.0,84,0.00,,,0.00,0,Wunderground v.1.15,2013-05-02 07:09:00,
2013-05-02 03:15:00,55.8,50.7,30.28,East,88,0.0,-999.0,83,0.00,,,0.00,0,Wunderground v.1.15,2013-05-02 07:15:00,
2013-05-02 03:20:00,55.7,50.6,30.28,ENE,68,0.0,-999.0,83,0.00,,,0.00,0,Wunderground v.1.15,2013-05-02 07:20:00,
2013-05-02 03:25:00,55.6,50.2,30.28,ENE,68,0.0,-999.0,82,0.00,,,0.00,0,Wunderground v.1.15,2013-05-02 07:25:00,
2013-05-02 03:31:00,55.5,50.1,30.28,ENE,75,0.0,-999.0,82,0.00,,,0.00,0,Wunderground v.1.15,2013-05-02 07:31:00,
2013-05-02 03:36:00,55.4,50.0,30.27,East,89,0.0,-999.0,82,0.00,,,0.00,0,Wunderground v.1.15,2013-05-02 07:36:00,
2013-05-02 03:41:00,55.3,49.9,30.27,East,89,0.0,-999.0,82,0.00,,,0.00,0,Wunderground v.1.15,2013-05-02 07:41:00,
2013-05-02 03:47:00,55.2,49.5,30.27,East,89,0.0,-999.0,81,0.00,,,0.00,0,Wunderground v.1.15,2013-05-02 07:47:00,
2013-05-02 03:52:00,55.1,49.7,30.27,East,89,0.0,-999.0,82,0.00,,,0.00,0,Wunderground v.1.15,2013-05-02 07:52:00,
2013-05-02 03:57:00,55.1,49.7,30.28,East,89,0.0,-999.0,82,0.00,,,0.00,0,Wunderground v.1.15,2013-05-02 07:57:00,
2013-05-02 04:03:00,55.1,49.7,30.28,East,89,0.0,-999.0,82,0.00,,,0.00,0,Wunderground v.1.15,2013-05-02 08:03:00,
2013-05-02 04:08:00,55.0,49.6,30.28,East,89,0.0,-999.0,82,0.00,,,0.00,0,Wunderground v.1.15,2013-05-02 08:08:00,
2013-05-02 04:13:00,55.0,49.6,30.28,East,89,0.0,-999.0,82,0.00,,,0.00,0,Wunderground v.1.15,2013-05-02 08:13:00,
2013-05-02 04:18:00,55.0,49.3,30.28,East,89,0.0,-999.0,81,0.00,,,0.00,0,Wunderground v.1.15,2013-05-02 08:18:00,
2013-05-02 04:24:00,54.9,49.2,30.28,East,89,0.0,-999.0,81,0.00,,,0.00,0,Wunderground v.1.15,2013-05-02 08:24:00,
2013-05-02 04:29:00,54.9,49.2,30.28,East,89,0.0,-999.0,81,0.00,,,0.00,0,Wunderground v.1.15,2013-05-02 08:29:00,
2013-05-02 04:35:00,54.9,49.2,30.28,East,89,0.0,-999.0,81,0.00,,,0.00,0,Wunderground v.1.15,2013-05-02 08:35:00,
2013-05-02 04:41:00,54.9,49.2,30.28,East,89,0.0,-999.0,81,0.00,,,0.00,0,Wunderground v.1.15,2013-05-02 08:41:00,
2013-05-02 04:46:00,54.8,49.1,30.28,East,89,0.0,-999.0,81,0.00,,,0.00,0,Wunderground v.1.15,2013-05-02 08:46:00,
2013-05-02 04:51:00,54.8,49.1,30.27,East,89,0.0,-999.0,81,0.00,,,0.00,0,Wunderground v.1.15,2013-05-02 08:51:00,
2013-05-02 04:56:00,54.8,49.1,30.27,East,89,0.0,-999.0,81,0.00,,,0.00,0,Wunderground v.1.15,2013-05-02 08:56:00,
2013-05-02 05:03:00,54.7,49.0,30.28,East,89,0.0,-999.0,81,0.00,,,0.00,0,Wunderground v.1.15,2013-05-02 09:03:00,
2013-05-02 05:09:00,54.6,48.9,30.27,East,89,0.0,-999.0,81,0.00,,,0.00,0,Wunderground v.1.15,2013-05-02 09:09:00,
2013-05-02 05:15:00,54.6,49.2,30.27,North,355,0.0,-999.0,82,0.00,,,0.00,0,Wunderground v.1.15,2013-05-02 09:15:00,
2013-05-02 05:20:00,54.6,49.2,30.27,ESE,109,0.0,-999.0,82,0.00,,,0.00,0,Wunderground v.1.15,2013-05-02 09:20:00,
2013-05-02 05:25:00,54.6,49.2,30.27,ENE,78,0.0,-999.0,82,0.00,,,0.00,0,Wunderground v.1.15,2013-05-02 09:25:00,
2013-05-02 05:30:00,54.5,49.1,30.27,ENE,78,0.0,-999.0,82,0.00,,,0.00,0,Wunderground v.1.15,2013-05-02 09:30:00,
2013-05-02 05:36:00,54.5,49.1,30.27,East,88,0.0,-999.0,82,0.00,,,0.00,0,Wunderground v.1.15,2013-05-02 09:36:00,
2013-05-02 05:41:00,54.4,49.3,30.27,East,88,0.0,-999.0,83,0.00,,,0.00,0,Wunderground v.1.15,2013-05-02 09:41:00,
2013-05-02 05:46:00,54.4,49.3,30.27,East,88,0.0,-999.0,83,0.00,,,0.00,0,Wunderground v.1.15,2013-05-02 09:46:00,
2013-05-02 05:52:00,54.3,49.2,30.27,SE,139,0.0,-999.0,83,0.00,,,0.00,0,Wunderground v.1.15,2013-05-02 09:52:00,
2013-05-02 05:57:00,54.3,49.2,30.27,ESE,121,0.0,-999.0,83,0.00,,,0.00,0,Wunderground v.1.15,2013-05-02 09:57:00,
2013-05-02 06:02:00,54.3,49.2,30.27,ESE,121,0.0,-999.0,83,0.00,,,0.00,0,Wunderground v.1.15,2013-05-02 10:02:00,
2013-05-02 06:08:00,54.3,49.2,30.28,ESE,121,0.0,-999.0,83,0.00,,,0.00,0,Wunderground v.1.15,2013-05-02 10:08:00,
2013-05-02 06:13:00,54.3,48.9,30.28,ESE,121,0.0,-999.0,82,0.00,,,0.00,0,Wunderground v.1.15,2013-05-02 10:13:00,
2013-05-02 06:18:00,54.3,48.9,30.28,ESE,121,0.0,-999.0,82,0.00,,,0.00,0,Wunderground v.1.15,2013-05-02 10:18:00,
2013-05-02 06:23:00,54.3,48.9,30.28,ESE,121,0.0,-999.0,82,0.00,,,0.00,0,Wunderground v.1.15,2013-05-02 10:23:00,
2013-05-02 06:29:00,54.3,48.9,30.28,ESE,121,0.0,-999.0,82,0.00,,,0.00,0,Wunderground v.1.15,2013-05-02 10:29:00,
2013-05-02 06:34:00,54.3,48.9,30.29,ESE,121,0.0,-999.0,82,0.00,,,0.00,5,Wunderground v.1.15,2013-05-02 10:34:00,
2013-05-02 06:39:00,54.3,48.9,30.29,ESE,121,0.0,-999.0,82,0.00,,,0.00,7,Wunderground v.1.15,2013-05-02 10:39:00,
2013-05-02 06:45:00,54.3,48.9,30.29,ESE,121,0.0,-999.0,82,0.00,,,0.00,12,Wunderground v.1.15,2013-05-02 10:45:00,
2013-05-02 06:50:00,54.3,48.9,30.29,SSE,158,0.0,-999.0,82,0.00,,,0.00,16,Wunderground v.1.15,2013-05-02 10:50:00,
2013-05-02 06:55:00,54.3,49.2,30.29,SSE,158,0.0,-999.0,83,0.00,,,0.00,21,Wunderground v.1.15,2013-05-02 10:55:00,
2013-05-02 07:01:00,54.3,49.2,30.29,SSE,148,0.0,-999.0,83,0.00,,,0.00,26,Wunderground v.1.15,2013-05-02 11:01:00,
2013-05-02 07:07:00,54.3,49.2,30.29,SSE,148,0.0,-999.0,83,0.00,,,0.00,33,Wunderground v.1.15,2013-05-02 11:07:00,
2013-05-02 07:12:00,54.3,49.2,30.29,SSE,148,0.0,-999.0,83,0.00,,,0.00,35,Wunderground v.1.15,2013-05-02 11:12:00,
2013-05-02 07:17:00,54.3,49.2,30.29,SSE,148,0.0,-999.0,83,0.00,,,0.00,47,Wunderground v.1.15,2013-05-02 11:17:00,
2013-05-02 07:23:00,54.4,49.3,30.29,SSE,148,0.0,-999.0,83,0.00,,,0.00,67,Wunderground v.1.15,2013-05-02 11:23:00,
2013-05-02 07:28:00,54.5,49.4,30.29,SSE,148,0.0,-999.0,83,0.00,,,0.00,74,Wunderground v.1.15,2013-05-02 11:28:00,
2013-05-02 07:33:00,54.6,49.5,30.29,SSE,148,0.0,-999.0,83,0.00,,,0.00,70,Wunderground v.1.15,2013-05-02 11:33:00,
2013-05-02 07:39:00,54.7,49.6,30.29,SSE,148,0.0,-999.0,83,0.00,,,0.00,77,Wunderground v.1.15,2013-05-02 11:39:00,
2013-05-02 07:44:00,54.6,49.5,30.29,East,92,0.0,-999.0,83,0.00,,,0.00,69,Wunderground v.1.15,2013-05-02 11:44:00,
2013-05-02 07:49:00,54.6,49.9,30.30,East,92,0.0,-999.0,84,0.00,,,0.00,67,Wunderground v.1.15,2013-05-02 11:49:00,
2013-05-02 07:54:00,54.5,49.8,30.29,East,92,0.0,-999.0,84,0.00,,,0.00,65,Wunderground v.1.15,2013-05-02 11:54:00,
2013-05-02 08:00:00,54.4,50.0,30.29,East,100,0.0,-999.0,85,0.00,,,0.00,70,Wunderground v.1.15,2013-05-02 12:00:00,
2013-05-02 08:05:00,54.4,50.0,30.30,East,101,0.0,-999.0,85,0.00,,,0.00,79,Wunderground v.1.15,2013-05-02 12:05:00,
2013-05-02 08:10:00,54.4,50.0,30.30,East,101,0.0,-999.0,85,0.00,,,0.00,83,Wunderground v.1.15,2013-05-02 12:10:00,
2013-05-02 08:16:00,54.4,50.3,30.30,East,101,0.0,-999.0,86,0.00,,,0.00,93,Wunderground v.1.15,2013-05-02 12:16:00,
2013-05-02 08:21:00,54.4,50.3,30.30,East,101,0.0,-999.0,86,0.00,,,0.00,90,Wunderground v.1.15,2013-05-02 12:21:00,
2013-05-02 08:26:00,54.5,50.4,30.31,East,101,0.0,-999.0,86,0.00,,,0.00,84,Wunderground v.1.15,2013-05-02 12:26:00,
2013-05-02 08:32:00,54.6,50.5,30.31,East,101,0.0,-999.0,86,0.00,,,0.00,104,Wunderground v.1.15,2013-05-02 12:32:00,
2013-05-02 08:37:00,54.7,50.9,30.31,East,101,0.0,-999.0,87,0.00,,,0.00,121,Wunderground v.1.15,2013-05-02 12:37:00,
2013-05-02 08:42:00,54.7,50.9,30.31,East,101,0.0,-999.0,87,0.00,,,0.00,121,Wunderground v.1.15,2013-05-02 12:42:00,
2013-05-02 08:48:00,54.6,50.5,30.31,East,101,0.0,-999.0,86,0.00,,,0.00,120,Wunderground v.1.15,2013-05-02 12:48:00,
2013-05-02 08:53:00,54.6,50.8,30.30,East,101,0.0,-999.0,87,0.00,,,0.00,151,Wunderground v.1.15,2013-05-02 12:53:00,
2013-05-02 08:58:00,54.7,50.9,30.30,East,101,0.0,-999.0,87,0.00,,,0.00,158,Wunderground v.1.15,2013-05-02 12:58:00,
2013-05-02 09:04:00,54.9,51.1,30.30,East,101,0.0,-999.0,87,0.00,,,0.00,193,Wunderground v.1.15,2013-05-02 13:04:00,
2013-05-02 09:10:00,55.2,51.4,30.31,East,101,0.0,-999.0,87,0.00,,,0.00,232,Wunderground v.1.15,2013-05-02 13:10:00,
2013-05-02 09:15:00,55.6,51.8,30.31,NE,36,0.0,-999.0,87,0.00,,,0.00,218,Wunderground v.1.15,2013-05-02 13:15:00,
2013-05-02 09:20:00,55.7,51.6,30.31,ENE,60,0.0,-999.0,86,0.00,,,0.00,258,Wunderground v.1.15,2013-05-02 13:20:00,
2013-05-02 09:26:00,56.0,51.6,30.31,ESE,107,0.0,-999.0,85,0.00,,,0.00,227,Wunderground v.1.15,2013-05-02 13:26:00,
2013-05-02 09:31:00,56.2,51.7,30.31,SSE,160,0.0,-999.0,85,0.00,,,0.00,197,Wunderground v.1.15,2013-05-02 13:31:00,
2013-05-02 09:36:00,56.5,52.0,30.31,SSE,160,0.0,-999.0,85,0.00,,,0.00,227,Wunderground v.1.15,2013-05-02 13:36:00,
2013-05-02 09:41:00,56.7,51.6,30.31,SE,140,0.0,-999.0,83,0.00,,,0.00,248,Wunderground v.1.15,2013-05-02 13:41:00,
2013-05-02 09:47:00,56.7,51.6,30.31,SE,140,0.0,-999.0,83,0.00,,,0.00,214,Wunderground v.1.15,2013-05-02 13:47:00,
2013-05-02 09:52:00,56.7,51.6,30.31,East,83,0.0,-999.0,83,0.00,,,0.00,192,Wunderground v.1.15,2013-05-02 13:52:00,
2013-05-02 09:57:00,56.8,51.4,30.31,ESE,103,0.0,-999.0,82,0.00,,,0.00,179,Wunderground v.1.15,2013-05-02 13:57:00,
2013-05-02 10:02:00,56.6,51.2,30.31,ESE,103,0.0,-999.0,82,0.00,,,0.00,181,Wunderground v.1.15,2013-05-02 14:02:00,
2013-05-02 10:07:00,56.7,51.6,30.31,East,89,0.0,-999.0,83,0.00,,,0.00,176,Wunderground v.1.15,2013-05-02 14:07:00,
2013-05-02 10:13:00,56.8,51.7,30.31,East,95,0.0,-999.0,83,0.00,,,0.00,202,Wunderground v.1.15,2013-05-02 14:13:00,
2013-05-02 10:18:00,56.9,51.8,30.31,East,95,0.0,-999.0,83,0.00,,,0.00,209,Wunderground v.1.15,2013-05-02 14:18:00,
2013-05-02 10:23:00,57.0,51.9,30.31,East,95,0.0,-999.0,83,0.00,,,0.00,234,Wunderground v.1.15,2013-05-02 14:23:00,
2013-05-02 10:28:00,57.2,52.1,30.31,ENE,72,0.0,-999.0,83,0.00,,,0.00,220,Wunderground v.1.15,2013-05-02 14:28:00,
2013-05-02 10:34:00,57.3,52.2,30.31,ENE,73,0.0,-999.0,83,0.00,,,0.00,155,Wunderground v.1.15,2013-05-02 14:34:00,
2013-05-02 10:39:00,57.3,52.2,30.31,ENE,74,0.0,-999.0,83,0.00,,,0.00,183,Wunderground v.1.15,2013-05-02 14:39:00,
2013-05-02 10:45:00,57.5,52.4,30.31,ENE,74,0.0,-999.0,83,0.00,,,0.00,190,Wunderground v.1.15,2013-05-02 14:45:00,
2013-05-02 10:50:00,57.5,52.4,30.32,ENE,74,0.0,-999.0,83,0.00,,,0.00,206,Wunderground v.1.15,2013-05-02 14:50:00,
2013-05-02 10:55:00,57.6,52.5,30.32,ENE,74,0.0,-999.0,83,0.00,,,0.00,200,Wunderground v.1.15,2013-05-02 14:55:00,
2013-05-02 11:00:00,57.7,52.6,30.31,ENE,74,0.0,-999.0,83,0.00,,,0.00,190,Wunderground v.1.15,2013-05-02 15:00:00,
2013-05-02 11:06:00,57.6,52.5,30.31,East,88,0.0,-999.0,83,0.00,,,0.00,179,Wunderground v.1.15,2013-05-02 15:06:00,
2013-05-02 11:11:00,57.6,52.8,30.32,ENE,60,0.0,-999.0,84,0.00,,,0.00,192,Wunderground v.1.15,2013-05-02 15:11:00,
2013-05-02 11:16:00,57.7,52.9,30.32,East,94,0.0,-999.0,84,0.00,,,0.00,214,Wunderground v.1.15,2013-05-02 15:16:00,
2013-05-02 11:22:00,58.0,53.2,30.32,East,94,0.0,-999.0,84,0.00,,,0.00,204,Wunderground v.1.15,2013-05-02 15:22:00,
2013-05-02 11:27:00,58.1,53.3,30.32,East,94,0.0,-999.0,84,0.00,,,0.00,206,Wunderground v.1.15,2013-05-02 15:27:00,
2013-05-02 11:32:00,58.2,53.4,30.32,East,94,0.0,-999.0,84,0.00,,,0.00,174,Wunderground v.1.15,2013-05-02 15:32:00,
2013-05-02 11:38:00,58.3,53.5,30.32,ESE,104,0.0,-999.0,84,0.00,,,0.00,176,Wunderground v.1.15,2013-05-02 15:38:00,
2013-05-02 11:44:00,58.3,53.5,30.32,ESE,104,0.0,-999.0,84,0.00,,,0.00,144,Wunderground v.1.15,2013-05-02 15:44:00,
2013-05-02 11:49:00,58.4,53.6,30.32,ESE,104,0.0,-999.0,84,0.00,,,0.00,151,Wunderground v.1.15,2013-05-02 15:49:00,
2013-05-02 11:54:00,58.4,53.6,30.32,ESE,104,0.0,-999.0,84,0.00,,,0.00,262,Wunderground v.1.15,2013-05-02 15:54:00,
2013-05-02 12:00:00,58.5,53.7,30.32,ESE,104,0.0,-999.0,84,0.00,,,0.00,211,Wunderground v.1.15,2013-05-02 16:00:00,
2013-05-02 12:05:00,58.8,54.0,30.32,ESE,104,0.0,-999.0,84,0.00,,,0.00,234,Wunderground v.1.15,2013-05-02 16:05:00,
2013-05-02 12:10:00,59.0,54.2,30.32,ESE,105,0.0,-999.0,84,0.00,,,0.00,230,Wunderground v.1.15,2013-05-02 16:10:00,
2013-05-02 12:16:00,58.9,54.1,30.32,ENE,57,0.0,-999.0,84,0.00,,,0.00,241,Wunderground v.1.15,2013-05-02 16:16:00,
2013-05-02 12:21:00,59.0,54.2,30.32,ENE,57,0.0,-999.0,84,0.00,,,0.00,299,Wunderground v.1.15,2013-05-02 16:21:00,
2013-05-02 12:26:00,58.8,54.0,30.32,ESE,119,0.0,-999.0,84,0.00,,,0.00,341,Wunderground v.1.15,2013-05-02 16:26:00,
2013-05-02 12:32:00,58.9,54.4,30.32,East,80,0.0,-999.0,85,0.00,,,0.00,383,Wunderground v.1.15,2013-05-02 16:32:00,
2013-05-02 12:37:00,59.0,54.5,30.32,East,80,0.0,-999.0,85,0.00,,,0.00,290,Wunderground v.1.15,2013-05-02 16:37:00,
2013-05-02 12:42:00,59.0,54.5,30.32,SE,132,0.0,-999.0,85,0.00,,,0.00,302,Wunderground v.1.15,2013-05-02 16:42:00,
2013-05-02 12:48:00,58.8,54.0,30.32,East,85,0.0,-999.0,84,0.00,,,0.00,422,Wunderground v.1.15,2013-05-02 16:48:00,
2013-05-02 12:53:00,58.7,53.9,30.32,East,85,0.0,-999.0,84,0.00,,,0.00,436,Wunderground v.1.15,2013-05-02 16:53:00,
2013-05-02 12:59:00,59.1,54.3,30.32,ENE,74,1.0,-999.0,84,0.00,,,0.00,350,Wunderground v.1.15,2013-05-02 16:59:00,
2013-05-02 13:04:00,59.0,53.8,30.32,SE,136,0.0,-999.0,83,0.00,,,0.00,352,Wunderground v.1.15,2013-05-02 17:04:00,
2013-05-02 13:10:00,59.6,54.8,30.32,East,92,0.0,-999.0,84,0.00,,,0.00,341,Wunderground v.1.15,2013-05-02 17:10:00,
2013-05-02 13:15:00,59.9,54.4,30.31,ESE,109,0.0,-999.0,82,0.00,,,0.00,243,Wunderground v.1.15,2013-05-02 17:15:00,
2013-05-02 13:20:00,59.3,53.8,30.31,ENE,65,0.0,-999.0,82,0.00,,,0.00,318,Wunderground v.1.15,2013-05-02 17:20:00,
2013-05-02 13:25:00,59.4,53.9,30.31,East,96,0.0,-999.0,82,0.00,,,0.00,281,Wunderground v.1.15,2013-05-02 17:25:00,
2013-05-02 13:31:00,59.7,54.5,30.31,East,97,0.0,-999.0,83,0.00,,,0.00,244,Wunderground v.1.15,2013-05-02 17:31:00,
2013-05-02 13:36:00,59.7,54.2,30.32,East,97,0.0,-999.0,82,0.00,,,0.00,167,Wunderground v.1.15,2013-05-02 17:36:00,
2013-05-02 13:41:00,59.6,54.4,30.31,East,84,0.0,-999.0,83,0.00,,,0.00,142,Wunderground v.1.15,2013-05-02 17:41:00,
2013-05-02 13:46:00,59.5,54.3,30.31,East,84,0.0,-999.0,83,0.00,,,0.00,148,Wunderground v.1.15,2013-05-02 17:46:00,
2013-05-02 13:52:00,59.5,54.3,30.31,East,84,0.0,-999.0,83,0.00,,,0.00,383,Wunderground v.1.15,2013-05-02 17:52:00,
2013-05-02 13:57:00,59.8,54.6,30.31,East,84,0.0,-999.0,83,0.00,,,0.00,239,Wunderground v.1.15,2013-05-02 17:57:00,
2013-05-02 14:03:00,59.9,54.7,30.31,East,99,0.0,-999.0,83,0.00,,,0.00,241,Wunderground v.1.15,2013-05-02 18:03:00,
2013-05-02 14:08:00,59.7,54.5,30.31,East,98,0.0,-999.0,83,0.00,,,0.00,308,Wunderground v.1.15,2013-05-02 18:08:00,
2013-05-02 14:13:00,59.8,54.6,30.31,East,79,0.0,-999.0,83,0.00,,,0.00,425,Wunderground v.1.15,2013-05-02 18:13:00,
2013-05-02 14:19:00,59.6,54.4,30.31,ENE,69,0.0,-999.0,83,0.00,,,0.00,418,Wunderground v.1.15,2013-05-02 18:19:00,
2013-05-02 14:24:00,59.5,54.3,30.31,ENE,72,0.0,-999.0,83,0.00,,,0.00,302,Wunderground v.1.15,2013-05-02 18:24:00,
2013-05-02 14:29:00,59.4,54.2,30.31,ENE,72,1.0,-999.0,83,0.00,,,0.00,299,Wunderground v.1.15,2013-05-02 18:29:00,
2013-05-02 14:34:00,60.0,55.2,30.31,ENE,71,0.0,-999.0,84,0.00,,,0.00,272,Wunderground v.1.15,2013-05-02 18:34:00,
2013-05-02 14:40:00,60.6,55.7,30.31,ENE,72,0.0,-999.0,84,0.00,,,0.00,265,Wunderground v.1.15,2013-05-02 18:40:00,
2013-05-02 14:45:00,60.4,54.9,30.31,ESE,113,0.0,-999.0,82,0.00,,,0.00,253,Wunderground v.1.15,2013-05-02 18:45:00,
2013-05-02 14:50:00,60.6,55.4,30.31,NE,50,0.0,-999.0,83,0.00,,,0.00,239,Wunderground v.1.15,2013-05-02 18:50:00,
2013-05-02 14:56:00,60.5,55.0,30.30,ESE,116,0.0,-999.0,82,0.00,,,0.00,352,Wunderground v.1.15,2013-05-02 18:56:00,
2013-05-02 15:01:00,60.3,55.1,30.30,ESE,115,0.0,-999.0,83,0.00,,,0.00,281,Wunderground v.1.15,2013-05-02 19:01:00,
2013-05-02 15:06:00,60.1,54.6,30.30,ENE,68,0.0,-999.0,82,0.00,,,0.00,255,Wunderground v.1.15,2013-05-02 19:06:00,
2013-05-02 15:11:00,60.5,55.3,30.30,ENE,68,0.0,-999.0,83,0.00,,,0.00,297,Wunderground v.1.15,2013-05-02 19:11:00,
2013-05-02 15:16:00,61.0,55.5,30.29,ENE,68,0.0,-999.0,82,0.00,,,0.00,287,Wunderground v.1.15,2013-05-02 19:16:00,
2013-05-02 15:22:00,60.8,55.3,30.29,ENE,68,0.0,-999.0,82,0.00,,,0.00,148,Wunderground v.1.15,2013-05-02 19:22:00,
2013-05-02 15:27:00,60.7,55.2,30.29,ENE,68,0.0,-999.0,82,0.00,,,0.00,165,Wunderground v.1.15,2013-05-02 19:27:00,
2013-05-02 15:32:00,60.5,55.0,30.29,ENE,68,0.0,-999.0,82,0.00,,,0.00,202,Wunderground v.1.15,2013-05-02 19:32:00,
2013-05-02 15:37:00,60.3,54.8,30.29,East,80,0.0,-999.0,82,0.00,,,0.00,174,Wunderground v.1.15,2013-05-02 19:37:00,
2013-05-02 15:43:00,60.4,55.2,30.29,East,80,0.0,-999.0,83,0.00,,,0.00,186,Wunderground v.1.15,2013-05-02 19:43:00,
2013-05-02 15:48:00,60.7,55.2,30.29,East,82,0.0,-999.0,82,0.00,,,0.00,146,Wunderground v.1.15,2013-05-02 19:48:00,
2013-05-02 15:53:00,60.7,55.2,30.29,East,82,0.0,-999.0,82,0.00,,,0.00,255,Wunderground v.1.15,2013-05-02 19:53:00,
2013-05-02 15:58:00,60.7,55.2,30.29,East,82,0.0,-999.0,82,0.00,,,0.00,141,Wunderground v.1.15,2013-05-02 19:58:00,
2013-05-02 16:04:00,60.7,55.2,30.29,East,82,0.0,-999.0,82,0.00,,,0.00,86,Wunderground v.1.15,2013-05-02 20:04:00,
2013-05-02 16:09:00,60.6,55.1,30.28,East,84,0.0,-999.0,82,0.00,,,0.00,86,Wunderground v.1.15,2013-05-02 20:09:00,
2013-05-02 16:14:00,60.6,55.4,30.28,East,84,0.0,-999.0,83,0.00,,,0.00,102,Wunderground v.1.15,2013-05-02 20:14:00,
2013-05-02 16:20:00,60.6,55.4,30.28,East,84,0.0,-999.0,83,0.00,,,0.00,229,Wunderground v.1.15,2013-05-02 20:20:00,
2013-05-02 16:25:00,60.8,55.6,30.28,East,84,0.0,-999.0,83,0.00,,,0.00,306,Wunderground v.1.15,2013-05-02 20:25:00,
2013-05-02 16:30:00,61.0,55.8,30.28,ESE,103,0.0,-999.0,83,0.00,,,0.00,207,Wunderground v.1.15,2013-05-02 20:30:00,
2013-05-02 16:36:00,61.2,55.7,30.27,ESE,103,0.0,-999.0,82,0.00,,,0.00,135,Wunderground v.1.15,2013-05-02 20:36:00,
2013-05-02 16:41:00,61.0,55.5,30.27,ESE,103,0.0,-999.0,82,0.00,,,0.00,100,Wunderground v.1.15,2013-05-02 20:41:00,
2013-05-02 16:46:00,61.1,55.6,30.27,ESE,103,0.0,-999.0,82,0.00,,,0.00,156,Wunderground v.1.15,2013-05-02 20:46:00,
2013-05-02 16:51:00,61.1,55.6,30.27,ESE,103,0.0,-999.0,82,0.00,,,0.00,271,Wunderground v.1.15,2013-05-02 20:51:00,
2013-05-02 16:57:00,61.5,56.0,30.27,ESE,103,0.0,-999.0,82,0.00,,,0.00,352,Wunderground v.1.15,2013-05-02 20:57:00,
2013-05-02 17:02:00,61.8,55.9,30.26,ESE,103,0.0,-999.0,81,0.00,,,0.00,297,Wunderground v.1.15,2013-05-02 21:02:00,
2013-05-02 17:08:00,62.0,56.1,30.26,ESE,103,0.0,-999.0,81,0.00,,,0.00,139,Wunderground v.1.15,2013-05-02 21:08:00,
2013-05-02 17:13:00,62.0,55.8,30.26,ENE,72,0.0,-999.0,80,0.00,,,0.00,114,Wunderground v.1.15,2013-05-02 21:13:00,
2013-05-02 17:18:00,61.8,55.6,30.26,ESE,109,0.0,-999.0,80,0.00,,,0.00,146,Wunderground v.1.15,2013-05-02 21:18:00,
2013-05-02 17:24:00,61.5,55.6,30.26,ESE,109,0.0,-999.0,81,0.00,,,0.00,123,Wunderground v.1.15,2013-05-02 21:24:00,
2013-05-02 17:29:00,61.3,55.4,30.26,ESE,109,0.0,-999.0,81,0.00,,,0.00,135,Wunderground v.1.15,2013-05-02 21:29:00,
2013-05-02 17:34:00,61.3,55.4,30.26,ESE,109,0.0,-999.0,81,0.00,,,0.00,142,Wunderground v.1.15,2013-05-02 21:34:00,
2013-05-02 17:39:00,61.3,55.4,30.26,ESE,109,0.0,-999.0,81,0.00,,,0.00,91,Wunderground v.1.15,2013-05-02 21:39:00,
2013-05-02 17:45:00,61.3,55.4,30.26,ESE,109,0.0,-999.0,81,0.00,,,0.00,81,Wunderground v.1.15,2013-05-02 21:45:00,
2013-05-02 17:50:00,61.1,55.6,30.26,ESE,109,0.0,-999.0,82,0.00,,,0.00,62,Wunderground v.1.15,2013-05-02 21:50:00,
2013-05-02 17:55:00,61.1,55.6,30.26,ESE,109,0.0,-999.0,82,0.00,,,0.00,58,Wunderground v.1.15,2013-05-02 21:55:00,
2013-05-02 18:01:00,61.0,55.5,30.26,ESE,109,0.0,-999.0,82,0.00,,,0.00,60,Wunderground v.1.15,2013-05-02 22:01:00,
2013-05-02 18:07:00,61.0,55.5,30.26,ESE,109,0.0,-999.0,82,0.00,,,0.00,53,Wunderground v.1.15,2013-05-02 22:07:00,
2013-05-02 18:12:00,60.9,55.4,30.26,ESE,109,0.0,-999.0,82,0.00,,,0.00,56,Wunderground v.1.15,2013-05-02 22:12:00,
2013-05-02 18:17:00,60.7,55.2,30.26,ESE,109,0.0,-999.0,82,0.00,,,0.00,70,Wunderground v.1.15,2013-05-02 22:17:00,
2013-05-02 18:23:00,60.5,55.0,30.26,ESE,109,0.0,-999.0,82,0.00,,,0.00,90,Wunderground v.1.15,2013-05-02 22:23:00,
2013-05-02 18:28:00,60.4,54.9,30.25,ESE,109,0.0,-999.0,82,0.00,,,0.00,84,Wunderground v.1.15,2013-05-02 22:28:00,
2013-05-02 18:33:00,60.4,54.9,30.25,ESE,109,0.0,-999.0,82,0.00,,,0.00,70,Wunderground v.1.15,2013-05-02 22:33:00,
2013-05-02 18:39:00,60.4,54.9,30.25,ESE,109,0.0,-999.0,82,0.00,,,0.00,42,Wunderground v.1.15,2013-05-02 22:39:00,
2013-05-02 18:44:00,60.3,54.8,30.25,ESE,109,0.0,-999.0,82,0.00,,,0.00,30,Wunderground v.1.15,2013-05-02 22:44:00,
2013-05-02 18:49:00,60.2,55.0,30.25,North,5,0.0,-999.0,83,0.00,,,0.00,19,Wunderground v.1.15,2013-05-02 22:49:00,
2013-05-02 18:55:00,60.1,54.9,30.25,ESE,103,0.0,-999.0,83,0.00,,,0.00,14,Wunderground v.1.15,2013-05-02 22:55:00,
2013-05-02 19:00:00,59.9,54.7,30.25,ESE,103,0.0,-999.0,83,0.00,,,0.00,14,Wunderground v.1.15,2013-05-02 23:00:00,
2013-05-02 19:05:00,59.7,54.9,30.25,ESE,109,0.0,-999.0,84,0.00,,,0.00,18,Wunderground v.1.15,2013-05-02 23:05:00,
2013-05-02 19:11:00,59.4,54.6,30.25,ESE,109,0.0,-999.0,84,0.00,,,0.00,19,Wunderground v.1.15,2013-05-02 23:11:00,
2013-05-02 19:16:00,59.0,54.2,30.25,ESE,109,0.0,-999.0,84,0.00,,,0.00,18,Wunderground v.1.15,2013-05-02 23:16:00,
2013-05-02 19:21:00,59.0,54.2,30.25,ESE,109,0.0,-999.0,84,0.00,,,0.00,16,Wunderground v.1.15,2013-05-02 23:21:00,
2013-05-02 19:26:00,59.0,54.2,30.25,ESE,109,0.0,-999.0,84,0.00,,,0.00,16,Wunderground v.1.15,2013-05-02 23:26:00,
2013-05-02 19:32:00,59.0,54.2,30.25,ESE,109,0.0,-999.0,84,0.00,,,0.00,11,Wunderground v.1.15,2013-05-02 23:32:00,
2013-05-02 19:37:00,59.0,54.2,30.25,ESE,109,0.0,-999.0,84,0.00,,,0.00,9,Wunderground v.1.15,2013-05-02 23:37:00,
2013-05-02 19:42:00,59.0,54.2,30.25,ESE,105,0.0,-999.0,84,0.00,,,0.00,5,Wunderground v.1.15,2013-05-02 23:42:00,
2013-05-02 19:48:00,59.0,54.2,30.25,ESE,105,0.0,-999.0,84,0.00,,,0.00,0,Wunderground v.1.15,2013-05-02 23:48:00,
2013-05-02 19:53:00,59.0,54.5,30.26,ESE,105,0.0,-999.0,85,0.00,,,0.00,0,Wunderground v.1.15,2013-05-02 23:53:00,
2013-05-02 19:58:00,59.0,54.5,30.26,ESE,105,0.0,-999.0,85,0.00,,,0.00,0,Wunderground v.1.15,2013-05-02 23:58:00,
2013-05-02 20:04:00,59.0,54.5,30.26,ESE,105,0.0,-999.0,85,0.00,,,0.00,0,Wunderground v.1.15,2013-05-03 00:04:00,
2013-05-02 20:09:00,59.0,54.5,30.26,ESE,105,0.0,-999.0,85,0.00,,,0.00,0,Wunderground v.1.15,2013-05-03 00:09:00,
2013-05-02 20:14:00,59.0,54.5,30.26,ESE,105,0.0,-999.0,85,0.00,,,0.00,0,Wunderground v.1.15,2013-05-03 00:14:00,
2013-05-02 20:19:00,58.9,54.4,30.26,ESE,105,0.0,-999.0,85,0.00,,,0.00,0,Wunderground v.1.15,2013-05-03 00:19:00,
2013-05-02 20:24:00,58.8,54.6,30.26,ESE,105,0.0,-999.0,86,0.00,,,0.00,0,Wunderground v.1.15,2013-05-03 00:24:00,
2013-05-02 20:30:00,58.7,54.5,30.26,ESE,105,0.0,-999.0,86,0.00,,,0.00,0,Wunderground v.1.15,2013-05-03 00:30:00,
2013-05-02 20:35:00,58.6,54.4,30.26,ESE,105,0.0,-999.0,86,0.00,,,0.00,0,Wunderground v.1.15,2013-05-03 00:35:00,
2013-05-02 20:40:00,58.5,54.6,30.26,ESE,105,0.0,-999.0,87,0.00,,,0.00,0,Wunderground v.1.15,2013-05-03 00:40:00,
2013-05-02 20:45:00,58.4,54.5,30.26,ESE,105,0.0,-999.0,87,0.00,,,0.00,0,Wunderground v.1.15,2013-05-03 00:45:00,
2013-05-02 20:51:00,58.3,54.4,30.26,ESE,105,0.0,-999.0,87,0.00,,,0.00,0,Wunderground v.1.15,2013-05-03 00:51:00,
2013-05-02 20:56:00,58.2,54.3,30.26,ESE,105,0.0,-999.0,87,0.00,,,0.00,0,Wunderground v.1.15,2013-05-03 00:56:00,
2013-05-02 21:01:00,58.1,54.2,30.26,ESE,105,0.0,-999.0,87,0.00,,,0.00,0,Wunderground v.1.15,2013-05-03 01:01:00,
2013-05-02 21:06:00,58.0,54.2,30.26,ESE,105,0.0,-999.0,87,0.00,,,0.00,0,Wunderground v.1.15,2013-05-03 01:06:00,
2013-05-02 21:12:00,57.8,54.3,30.26,ESE,105,0.0,-999.0,88,0.00,,,0.00,0,Wunderground v.1.15,2013-05-03 01:12:00,
2013-05-02 21:17:00,57.7,54.2,30.26,ESE,105,0.0,-999.0,88,0.00,,,0.00,0,Wunderground v.1.15,2013-05-03 01:17:00,
2013-05-02 21:22:00,57.5,53.7,30.26,ESE,105,0.0,-999.0,87,0.00,,,0.00,0,Wunderground v.1.15,2013-05-03 01:22:00,
2013-05-02 21:28:00,57.2,53.7,30.27,ESE,105,0.0,-999.0,88,0.00,,,0.00,0,Wunderground v.1.15,2013-05-03 01:28:00,
2013-05-02 21:33:00,57.0,53.5,30.27,ESE,105,0.0,-999.0,88,0.00,,,0.00,0,Wunderground v.1.15,2013-05-03 01:33:00,
2013-05-02 21:38:00,56.8,53.3,30.27,ESE,105,0.0,-999.0,88,0.00,,,0.00,0,Wunderground v.1.15,2013-05-03 01:38:00,
2013-05-02 21:44:00,56.6,53.4,30.27,ESE,105,0.0,-999.0,89,0.00,,,0.00,0,Wunderground v.1.15,2013-05-03 01:44:00,
2013-05-02 21:49:00,56.4,53.2,30.27,ESE,105,0.0,-999.0,89,0.00,,,0.00,0,Wunderground v.1.15,2013-05-03 01:49:00,
2013-05-02 21:54:00,56.3,53.1,30.27,ESE,105,0.0,-999.0,89,0.00,,,0.00,0,Wunderground v.1.15,2013-05-03 01:54:00,
2013-05-02 21:59:00,56.2,53.3,30.26,ESE,105,0.0,-999.0,90,0.00,,,0.00,0,Wunderground v.1.15,2013-05-03 01:59:00,
2013-05-02 22:05:00,56.1,53.2,30.26,ESE,105,0.0,-999.0,90,0.00,,,0.00,0,Wunderground v.1.15,2013-05-03 02:05:00,
2013-05-02 22:10:00,56.0,53.1,30.27,ESE,105,0.0,-999.0,90,0.00,,,0.00,0,Wunderground v.1.15,2013-05-03 02:10:00,
2013-05-02 22:15:00,56.0,53.1,30.26,ESE,105,0.0,-999.0,90,0.00,,,0.00,0,Wunderground v.1.15,2013-05-03 02:15:00,
2013-05-02 22:21:00,56.0,53.1,30.26,ESE,105,0.0,-999.0,90,0.00,,,0.00,0,Wunderground v.1.15,2013-05-03 02:21:00,
2013-05-02 22:26:00,55.9,53.3,30.26,ESE,105,0.0,-999.0,91,0.00,,,0.00,0,Wunderground v.1.15,2013-05-03 02:26:00,
2013-05-02 22:31:00,55.9,53.3,30.26,ESE,105,0.0,-999.0,91,0.00,,,0.00,0,Wunderground v.1.15,2013-05-03 02:31:00,
2013-05-02 22:37:00,55.8,53.2,30.26,ESE,105,0.0,-999.0,91,0.00,,,0.00,0,Wunderground v.1.15,2013-05-03 02:37:00,
2013-05-02 22:42:00,55.7,53.1,30.26,ESE,105,0.0,-999.0,91,0.00,,,0.00,0,Wunderground v.1.15,2013-05-03 02:42:00,
2013-05-02 22:47:00,55.6,53.0,30.26,ESE,105,0.0,-999.0,91,0.00,,,0.00,0,Wunderground v.1.15,2013-05-03 02:47:00,
2013-05-02 22:52:00,55.5,52.9,30.26,ESE,105,0.0,-999.0,91,0.00,,,0.00,0,Wunderground v.1.15,2013-05-03 02:52:00,
2013-05-02 22:58:00,55.5,52.9,30.26,ESE,105,0.0,-999.0,91,0.00,,,0.00,0,Wunderground v.1.15,2013-05-03 02:58:00,
2013-05-02 23:03:00,55.4,52.8,30.26,ESE,105,0.0,-999.0,91,0.00,,,0.00,0,Wunderground v.1.15,2013-05-03 03:03:00,
2013-05-02 23:08:00,55.3,52.7,30.25,ESE,105,0.0,-999.0,91,0.00,,,0.00,0,Wunderground v.1.15,2013-05-03 03:08:00,
2013-05-02 23:14:00,55.3,52.7,30.25,ESE,105,0.0,-999.0,91,0.00,,,0.00,0,Wunderground v.1.15,2013-05-03 03:14:00,
2013-05-02 23:20:00,55.2,52.6,30.25,ESE,105,0.0,-999.0,91,0.00,,,0.00,0,Wunderground v.1.15,2013-05-03 03:20:00,
2013-05-02 23:25:00,55.1,52.5,30.25,ESE,105,0.0,-999.0,91,0.00,,,0.00,0,Wunderground v.1.15,2013-05-03 03:25:00,
2013-05-02 23:30:00,55.1,52.5,30.25,ESE,105,0.0,-999.0,91,0.00,,,0.00,0,Wunderground v.1.15,2013-05-03 03:30:00,
2013-05-02 23:36:00,55.0,52.4,30.25,ESE,105,0.0,-999.0,91,0.00,,,0.00,0,Wunderground v.1.15,2013-05-03 03:36:00,
2013-05-02 23:41:00,55.0,52.4,30.25,ESE,105,0.0,-999.0,91,0.00,,,0.00,0,Wunderground v.1.15,2013-05-03 03:41:00,
2013-05-02 23:46:00,54.9,52.3,30.25,ESE,105,0.0,-999.0,91,0.00,,,0.00,0,Wunderground v.1.15,2013-05-03 03:46:00,
2013-05-02 23:52:00,54.8,52.5,30.25,ESE,105,0.0,-999.0,92,0.00,,,0.00,0,Wunderground v.1.15,2013-05-03 03:52:00,
2013-05-02 23:57:00,54.8,52.5,30.26,ESE,105,0.0,-999.0,92,0.00,,,0.00,0,Wunderground v.1.15,2013-05-03 03:57:00,